Terminal Aerodrome Forecast
Issued by NWS Denver/Boulder, CO

Home | Current Version | Previous Version | Text Only | Print | Product List | Glossary On
Versions: 1 2 3 4 5 6 7 8 9 10 11 12 13 14 15 16 17 18 19 20 21 22 23 24 25 26 27 28 29 30 31 32 33 34 35 36 37 38 39 40 41 42 43 44 45 46 47 48 49 50
000
FTUS45 KBOU 260236 AAB
TAFDEN
TAF AMD
KDEN 260236Z 2603/2706 29014KT P6SM FEW110 SCT140
     FM260315 02012G22KT P6SM SCT060 BKN110
     FM260500 05011KT P6SM VCSH SCT025 BKN060
     FM260700 09008KT P6SM SCT015 OVC025
      TEMPO 2608/2612 2SM -SN BR BKN015
     FM261600 17007KT P6SM FEW025 BKN060
     FM261800 26007KT P6SM SCT060 SCT140
     FM270200 22007KT P6SM FEW140=

USA.gov is the U.S. government's official web portal to all federal, state and local government web resources and services.